This is the latest recevied weather packets stored in our database for station/object DL1MMS-10. If no packets are shown the sender has not sent any weather packets the latest 10 day(s).
| Time | Temp. | Humidity | Pressure | Rain* | Wind** | Luminosity | Snow |
|---|---|---|---|---|---|---|---|
| 1777977469 | 25° C | 36% | 1009.2 hPa | 0 mm | - | - | - |
| 1777977169 | 25.56° C | 38% | 1009.2 hPa | 0 mm | - | - | - |
| 1777976869 | 25.56° C | 38% | 1009.3 hPa | 0 mm | - | - | - |
| 1777976568 | 25° C | 40% | 1009.2 hPa | 0 mm | - | - | - |
| 1777976268 | 24.44° C | 41% | 1009.2 hPa | 0 mm | - | - | - |
| 1777975968 | 23.33° C | 44% | 1009.3 hPa | 0 mm | - | - | - |
| 1777975667 | 22.22° C | 46% | 1009.3 hPa | 0 mm | - | - | - |
| 1777975367 | 21.67° C | 46% | 1009.3 hPa | 0 mm | - | - | - |
| 1777975067 | 20.56° C | 47% | 1009.3 hPa | 0 mm | - | - | - |
| 1777974767 | 20.56° C | 48% | 1009.4 hPa | 0 mm | - | - | - |
| 1777974466 | 20° C | 49% | 1009.4 hPa | 0 mm | - | - | - |
| 1777974166 | 20° C | 49% | 1009.4 hPa | 0 mm | - | - | - |
| 1777973866 | 19.44° C | 51% | 1009.4 hPa | 0 mm | - | - | - |
| 1777973566 | 19.44° C | 51% | 1009.4 hPa | 0 mm | - | - | - |
| 1777973265 | 19.44° C | 52% | 1009.5 hPa | 0 mm | - | - | - |
| 1777972965 | 19.44° C | 52% | 1009.5 hPa | 0 mm | - | - | - |
| 1777972665 | 19.44° C | 52% | 1009.7 hPa | 0 mm | - | - | - |
| 1777972364 | 19.44° C | 53% | 1009.7 hPa | 0 mm | - | - | - |
| 1777972064 | 19.44° C | 55% | 1009.7 hPa | 0 mm | - | - | - |
| 1777971764 | 20° C | 55% | 1009.7 hPa | 0 mm | - | - | - |
| 1777971463 | 20° C | 56% | 1009.8 hPa | 0 mm | - | - | - |
| 1777971163 | 20° C | 58% | 1009.8 hPa | 0 mm | - | - | - |
| 1777970863 | 20° C | 60% | 1009.9 hPa | 0 mm | - | - | - |
| 1777970563 | 19.44° C | 61% | 1009.7 hPa | 0 mm | - | - | - |
| 1777970262 | 18.89° C | 62% | 1009.8 hPa | 0 mm | - | - | - |
* Rain latest hour (hover to see other rain measurements)
** Current wind speed in m/s (hover to see current wind gust speed)